Weather History for Carlsbad, CA

Change the Weather History Date:

Wednesday, January 8, 2014

  Actual Average Record
Temperature  
Mean Temperature 54 °F -  
Max Temperature 63 °F 61 °F 75 °F (2007)
Min Temperature 46 °F 46 °F 39 °F (2000)
Degree Days  
Heating Degree Days 10    
Growing Degree Days 4 (Base 50)    
Moisture  
Dew Point 47 °F    
Average Humidity 84    
Maximum Humidity 100    
Minimum Humidity 54    
Precipitation  
Precipitation 0.00 in - - ()
Sea Level Pressure  
Sea Level Pressure 30.06 in    
Wind  
Wind Speed 2 mph (SSE)    
Max Wind Speed 9 mph    
Max Gust Speed -    
Visibility 7 miles    
Events Fog    
Averages and records for this station are not official NWS values.
T = Trace of Precipitation, MM = Missing Value Source: NWS Daily Summary

Daily Weather History Graph

Daily Weather History Graph

Search for Another Location

Airport:

Trip Planner

Search our weather history database for the weather conditions in past years. The results will help you decide how hot, cold, wet, or windy it might be!

Date:

Astronomy

Jan. 08, 2014 Rise Set
Actual Time 6:53 AM PST 4:58 PM PST
Civil Twilight 6:26 AM PST 5:26 PM PST
Nautical Twilight 5:55 AM PST 5:56 PM PST
Astronomical Twilight 5:25 AM PST 6:26 PM PST
Moon 11:44 AM PST (1/8) 12:14 AM PST (1/8)
Length of Visible Light 10h 59m
Length of Day
10h 05m
First Quarter, 57% of the Moon is Illuminated
Jan 8
First Quarter
Jan 15
Full
Jan 23
Last Quarter
Jan 30
New
Feb 6
First Quarter

Hourly Weather History & Observations

Time (PST) Temp. Windchill Dew Point Humidity Pressure Visibility Wind Dir Wind Speed Gust Speed Precip Events Conditions
12:00 AM 53.6 °F - 51.8 °F 94% 30.07 in 0.2 mi SE 4.6 mph - N/A Fog Fog
12:53 AM 52.0 °F - 51.1 °F 97% 30.06 in 0.2 mi Calm Calm - N/A Fog Fog
1:25 AM 48.2 °F - 48.2 °F 100% 30.07 in 1.0 mi East 3.5 mph - N/A   Mist
1:28 AM 48.2 °F - 46.4 °F 93% 30.07 in 4.0 mi Calm Calm - N/A   Mostly Cloudy
1:37 AM 48.2 °F - 46.4 °F 93% 30.07 in 8.0 mi Calm Calm - N/A   Scattered Clouds
1:53 AM 48.0 °F - 46.0 °F 93% 30.06 in 10.0 mi ESE 3.5 mph - N/A   Clear
2:35 AM 48.2 °F - 46.4 °F 93% 30.07 in 2.0 mi Calm Calm - N/A   Clear
2:44 AM 48.2 °F - 46.4 °F 93% 30.06 in 4.0 mi Calm Calm - N/A   Clear
2:47 AM 48.2 °F - 46.4 °F 93% 30.06 in 1.5 mi Calm Calm - N/A   Partly Cloudy
2:53 AM 48.0 °F - 46.9 °F 96% 30.06 in 0.8 mi Calm Calm - N/A   Mist
3:20 AM 48.2 °F - 46.4 °F 93% 30.06 in 2.0 mi Calm Calm - N/A   Mostly Cloudy
3:29 AM 48.2 °F - 46.4 °F 93% 30.06 in 6.0 mi Calm Calm - N/A   Mostly Cloudy
3:53 AM 46.9 °F - 46.0 °F 97% 30.06 in 5.0 mi Calm Calm - N/A   Mostly Cloudy
4:02 AM 46.4 °F - 44.6 °F 93% 30.06 in 7.0 mi Calm Calm - N/A   Scattered Clouds
4:28 AM 46.4 °F - 44.6 °F 93% 30.05 in 8.0 mi Calm Calm - N/A   Mostly Cloudy
4:41 AM 46.4 °F - 44.6 °F 93% 30.05 in 8.0 mi Calm Calm - N/A   Scattered Clouds
4:53 AM 46.0 °F 44.8 °F 44.1 °F 93% 30.04 in 7.0 mi East 3.5 mph - N/A   Partly Cloudy
5:53 AM 46.9 °F - 43.0 °F 86% 30.04 in 10.0 mi Calm Calm - N/A   Clear
6:53 AM 46.0 °F - 39.0 °F 76% 30.05 in 10.0 mi Calm Calm - N/A   Clear
7:53 AM 48.9 °F - 39.9 °F 71% 30.08 in 10.0 mi Calm Calm - N/A   Clear
8:41 AM 53.6 °F - 42.8 °F 67% 30.10 in 10.0 mi Calm Calm - N/A   Scattered Clouds
8:53 AM 55.0 °F - 42.1 °F 62% 30.10 in 10.0 mi SSE 3.5 mph - N/A   Partly Cloudy
9:10 AM 55.4 °F - 42.8 °F 63% 30.11 in 10.0 mi SSE 3.5 mph - N/A   Mostly Cloudy
9:50 AM 55.4 °F - 48.2 °F 77% 30.13 in 8.0 mi South 5.8 mph - N/A   Scattered Clouds
9:53 AM 55.9 °F - 48.9 °F 77% 30.13 in 7.0 mi SSW 5.8 mph - N/A   Partly Cloudy
10:53 AM 59.0 °F - 46.9 °F 64% 30.11 in 8.0 mi South 5.8 mph - N/A   Clear
11:53 AM 63.0 °F - 46.0 °F 54% 30.07 in 10.0 mi South 5.8 mph - N/A   Clear
12:53 PM 63.0 °F - 51.1 °F 65% 30.02 in 10.0 mi WSW 8.1 mph - N/A   Clear
1:53 PM 62.1 °F - 52.0 °F 70% 30.01 in 10.0 mi SW 9.2 mph - N/A   Clear
2:53 PM 60.1 °F - 52.0 °F 75% 30.01 in 10.0 mi SW 9.2 mph - N/A   Clear
3:53 PM 59.0 °F - 52.0 °F 78% 30.03 in 10.0 mi SW 6.9 mph - N/A   Clear
4:53 PM 57.9 °F - 52.0 °F 81% 30.04 in 10.0 mi SW 3.5 mph - N/A   Scattered Clouds
5:53 PM 55.9 °F - 52.0 °F 87% 30.04 in 7.0 mi SSE 3.5 mph - N/A   Partly Cloudy
6:53 PM 55.0 °F - 51.1 °F 86% 30.05 in 6.0 mi SE 3.5 mph - N/A   Clear
7:53 PM 54.0 °F - 51.1 °F 90% 30.06 in 7.0 mi ESE 3.5 mph - N/A   Clear
8:53 PM 53.1 °F - 50.0 °F 89% 30.07 in 5.0 mi Calm Calm - N/A   Clear
9:53 PM 53.1 °F - 50.0 °F 89% 30.08 in 5.0 mi Calm Calm - N/A   Mostly Cloudy
10:53 PM 54.0 °F - 50.0 °F 86% 30.08 in 7.0 mi East 4.6 mph - N/A   Overcast
11:53 PM 55.0 °F - 50.0 °F 83% 30.07 in 8.0 mi East 4.6 mph - N/A   Mostly Cloudy